Flag for U.S.A. Weather past 2 weeks in Grand Junction, Colorado, U.S.A.

Now
73 °F

Sunny.


Feels Like: 77 °F
Forecast: 58 / 86 °F
Wind: No wind

Location: Walker Field

Current Time: Aug 29, 2014 at 8:26:06 PM

Latest Report: Aug 29, 2014 at 7:53 PM


Visibility: 10 mi

Pressure: 29.88 "Hg

Humidity: 43%

Dew point: 49 °F

Location of Grand JunctionLocation

Historic Weather in Grand Junction — Graph

°F

Grand Junction temperature yesterday

Maximum temperature yesterday: 76 °F (at 4:53 PM)
Minimum temperature yesterday: 56 °F (at 3:53 AM)
Average temperature yesterday: 64 °F

Past Weeks' High & Low Weather Summary

 TemperatureHumidityPressure
High93 °F (Aug 17, 3:53 PM)100% (Aug 20, 2:53 AM)30.14 "Hg (Aug 20, 2:53 AM)
Low51 °F (Aug 24, 5:53 AM)10% (Aug 18, 5:53 PM)29.67 "Hg (Aug 18, 11:53 PM)
Average69 °F57%29.92 "Hg
* Reported Aug 14 6:53 PM — Aug 29 6:53 PM, Grand Junction, Weather by CustomWeather, © 2014

Note: Actual official high and low records may vary slightly from our data, if they occured in-between our weather recording intervals... More about our weather records

Advertising

Grand Junction weather history for previous 24 hours

 ConditionsComfort  
Time TempWeatherWind HumidityBarometerVisibility
6:53 PM
Aug 29
78 °FSunny.6 mph30%29.88 "Hg10 mi
5:53 PM81 °FSunny.7 mph23%29.87 "Hg10 mi
4:53 PM83 °FSunny.5 mph19%29.86 "Hg10 mi
3:53 PM82 °FSunny.6 mph22%29.89 "Hg10 mi
2:53 PM82 °FSunny.9 mph25%29.91 "Hg10 mi
12:53 PM75 °FSunny.No wind39%29.97 "Hg10 mi
11:53 AM74 °FSunny.3 mph43%30.00 "Hg10 mi
10:53 AM71 °FSunny.No wind47%30.02 "Hg10 mi
9:53 AM67 °FSunny.8 mph57%30.04 "Hg10 mi
8:53 AM63 °FSunny.10 mph63%30.03 "Hg10 mi
7:53 AM60 °FPassing clouds.8 mph69%30.02 "Hg10 mi
6:53 AM56 °FPassing clouds.10 mph84%30.01 "Hg10 mi
5:53 AM59 °FPassing clouds.13 mph72%29.99 "Hg10 mi
4:53 AM59 °FMostly cloudy.9 mph75%29.98 "Hg10 mi
3:53 AM58 °FPassing clouds.9 mph75%29.98 "Hg10 mi
2:53 AM59 °FPassing clouds.9 mph75%29.97 "Hg10 mi
1:53 AM61 °FPassing clouds.14 mph70%29.98 "Hg10 mi
12:53 AM61 °FPassing clouds.12 mph75%29.99 "Hg10 mi
11:53 PM
Aug 28
59 °FClear.8 mph84%30.00 "Hg10 mi
10:53 PM62 °FClear.7 mph75%30.00 "Hg10 mi
9:53 PM62 °FClear.6 mph80%30.01 "Hg10 mi
8:53 PM66 °FPassing clouds.6 mph70%29.99 "Hg10 mi
Weather by CustomWeather, © 2014

See weather overviewHow to use our weather pages